CFG4PM EDDH-EDDF

Flight info

Callsign CFG4PM
Flight time 0h 51m
Altitude 30000
Route AMLUH2G/33 AMLUH M852 DENIX DCT RIMET/N0452F310 T157 KOKEB/N0409F230 T157 KERAX KERAX5A
Aircraft A320/M-SDE3FGHIRWY/LB1

Departure

Time 2026-05-05 12:57
Airport Hamburg Helmut Schmidt Airport (EDDH)

Arrival

Time 2026-05-05 13:49
Airport Frankfurt Main Airport (EDDF)
Time Latitude Longitude Altitude Speed Heading
2026-05-05 12:06 53.63074 10.00378 49 ft 0 kts 94°
2026-05-05 12:44 53.63074 10.00370 48 ft 3 kts 95°
2026-05-05 12:44 53.63078 10.00331 48 ft 1 kts 98°
2026-05-05 12:44 53.63081 10.00291 46 ft 4 kts 102°
2026-05-05 12:44 53.63090 10.00251 45 ft 4 kts 140°
2026-05-05 12:45 53.63100 10.00242 42 ft 0 kts 183°
2026-05-05 12:47 53.63087 10.00243 44 ft 3 kts 176°
2026-05-05 12:47 53.63071 10.00247 46 ft 2 kts 175°
2026-05-05 12:48 53.63064 10.00247 44 ft 1 kts 180°
2026-05-05 12:48 53.63057 10.00245 46 ft 1 kts 187°
2026-05-05 12:48 53.63054 10.00244 48 ft 2 kts 194°
2026-05-05 12:48 53.63023 10.00216 45 ft 6 kts 211°
2026-05-05 12:49 53.62984 10.00172 48 ft 11 kts 213°
2026-05-05 12:49 53.62908 10.00088 46 ft 9 kts 214°
2026-05-05 12:49 53.62862 10.00022 48 ft 8 kts 238°
2026-05-05 12:49 53.62843 9.99955 48 ft 0 kts 243°
2026-05-05 12:52 53.62820 9.99879 43 ft 14 kts 244°
2026-05-05 12:52 53.62843 9.99763 45 ft 10 kts 319°
2026-05-05 12:53 53.62902 9.99716 45 ft 8 kts 333°
2026-05-05 12:53 53.62904 9.99714 45 ft 0 kts 333°
2026-05-05 12:56 53.62983 9.99645 43 ft 44 kts 333°
2026-05-05 12:56 53.63497 9.99207 47 ft 117 kts 332°
2026-05-05 12:57 53.64387 9.98426 64 ft 168 kts 332°
2026-05-05 12:57 53.65475 9.97431 434 ft 187 kts 333°
2026-05-05 12:57 53.66677 9.96334 1021 ft 205 kts 335°
2026-05-05 12:57 53.68063 9.95432 1584 ft 225 kts 346°
2026-05-05 12:58 53.69676 9.94958 2177 ft 246 kts 358°
2026-05-05 12:58 53.71432 9.94999 2873 ft 259 kts
2026-05-05 12:58 53.73176 9.95686 3919 ft 257 kts 20°
2026-05-05 12:58 53.74728 9.97144 4985 ft 257 kts 40°
2026-05-05 12:59 53.75762 9.99562 6024 ft 256 kts 70°
2026-05-05 12:59 53.75829 10.02503 6892 ft 258 kts 107°
2026-05-05 12:59 53.74986 10.05366 7061 ft 291 kts 124°
2026-05-05 13:00 53.72309 10.11310 7582 ft 342 kts 134°
2026-05-05 13:00 53.70709 10.14212 8715 ft 326 kts 131°
2026-05-05 13:01 53.66175 10.21413 9903 ft 293 kts 158°
2026-05-05 13:01 53.64245 10.22494 10103 ft 300 kts 168°
2026-05-05 13:01 53.62146 10.23427 10401 ft 324 kts 167°
2026-05-05 13:01 53.59892 10.24444 10650 ft 348 kts 167°
2026-05-05 13:02 53.57480 10.25546 10807 ft 371 kts 167°
2026-05-05 13:02 53.54931 10.26719 11070 ft 387 kts 166°
2026-05-05 13:02 53.52314 10.27929 11668 ft 392 kts 166°
2026-05-05 13:02 53.49666 10.29148 12299 ft 397 kts 166°
2026-05-05 13:03 53.46987 10.30376 12925 ft 402 kts 166°
2026-05-05 13:03 53.44274 10.31620 13555 ft 406 kts 166°
2026-05-05 13:03 53.41532 10.32872 14122 ft 411 kts 166°
2026-05-05 13:03 53.38796 10.34110 14678 ft 414 kts 167°
2026-05-05 13:04 53.36002 10.35364 15247 ft 418 kts 167°
2026-05-05 13:04 53.33182 10.36624 15784 ft 421 kts 167°
2026-05-05 13:04 53.30339 10.37892 16317 ft 425 kts 168°
2026-05-05 13:04 53.27469 10.39171 16825 ft 428 kts 167°
2026-05-05 13:05 53.24586 10.40461 17333 ft 431 kts 167°
2026-05-05 13:05 53.21682 10.41763 17824 ft 434 kts 167°
2026-05-05 13:05 53.18751 10.43074 18280 ft 438 kts 167°
2026-05-05 13:05 53.15798 10.44385 18705 ft 440 kts 168°
2026-05-05 13:06 53.12786 10.45235 19104 ft 439 kts 178°
2026-05-05 13:06 53.09741 10.45283 19512 ft 438 kts 187°
2026-05-05 13:06 53.06704 10.44849 19922 ft 439 kts 187°
2026-05-05 13:06 53.03655 10.44414 20317 ft 440 kts 187°
2026-05-05 13:07 53.00596 10.43989 20703 ft 442 kts 187°
2026-05-05 13:07 52.97569 10.43577 21054 ft 443 kts 187°
2026-05-05 13:07 52.94446 10.43157 21416 ft 445 kts 187°
2026-05-05 13:07 52.91355 10.42740 21764 ft 447 kts 187°
2026-05-05 13:08 52.88255 10.42322 22108 ft 448 kts 188°
2026-05-05 13:08 52.85142 10.41901 22446 ft 449 kts 188°
2026-05-05 13:08 52.82022 10.41479 22771 ft 451 kts 188°
2026-05-05 13:08 52.78888 10.41054 23062 ft 452 kts 188°
2026-05-05 13:09 52.75747 10.40626 23372 ft 454 kts 188°
2026-05-05 13:09 52.72593 10.40193 23661 ft 456 kts 188°
2026-05-05 13:09 52.69429 10.39761 23915 ft 457 kts 188°
2026-05-05 13:09 52.66262 10.39330 24150 ft 457 kts 188°
2026-05-05 13:10 52.63089 10.38903 24367 ft 458 kts 188°
2026-05-05 13:10 52.59909 10.38478 24567 ft 459 kts 188°
2026-05-05 13:10 52.56729 10.38053 24751 ft 459 kts 188°
2026-05-05 13:10 52.53544 10.37624 24903 ft 459 kts 187°
2026-05-05 13:11 52.50354 10.37197 25069 ft 460 kts 187°
2026-05-05 13:11 52.47168 10.36771 25252 ft 459 kts 187°
2026-05-05 13:11 52.43986 10.36348 25475 ft 458 kts 187°
2026-05-05 13:11 52.40812 10.35926 25700 ft 457 kts 188°
2026-05-05 13:12 52.37650 10.35502 25928 ft 456 kts 188°
2026-05-05 13:12 52.34487 10.35079 26162 ft 455 kts 188°
2026-05-05 13:12 52.31339 10.34660 26400 ft 454 kts 188°
2026-05-05 13:12 52.28197 10.34246 26640 ft 452 kts 187°
2026-05-05 13:13 52.25067 10.33834 26906 ft 450 kts 187°
2026-05-05 13:13 52.21952 10.33428 27163 ft 449 kts 187°
2026-05-05 13:13 52.18842 10.33023 27418 ft 448 kts 187°
2026-05-05 13:13 52.15780 10.32622 27667 ft 447 kts 188°
2026-05-05 13:14 52.12686 10.32211 27938 ft 446 kts 188°
2026-05-05 13:14 52.09598 10.31800 28212 ft 445 kts 188°
2026-05-05 13:14 52.06522 10.31390 28489 ft 443 kts 188°
2026-05-05 13:14 52.03451 10.30981 28773 ft 442 kts 188°
2026-05-05 13:15 52.00390 10.30579 29049 ft 441 kts 188°
2026-05-05 13:15 51.97333 10.30182 29339 ft 440 kts 188°
2026-05-05 13:15 51.94287 10.29787 29635 ft 439 kts 188°
2026-05-05 13:15 51.91250 10.29393 29832 ft 437 kts 188°
2026-05-05 13:16 51.85175 10.28601 29878 ft 439 kts 188°
2026-05-05 13:16 51.79085 10.27806 29873 ft 439 kts 188°
2026-05-05 13:17 51.72987 10.27018 29868 ft 439 kts 188°
2026-05-05 13:17 51.66887 10.26229 29617 ft 440 kts 188°
2026-05-05 13:18 51.63837 10.25836 29328 ft 441 kts 188°
2026-05-05 13:18 51.60777 10.25440 29046 ft 441 kts 188°
2026-05-05 13:18 51.57717 10.25044 28750 ft 437 kts 187°
2026-05-05 13:18 51.54740 10.24662 28509 ft 420 kts 187°
2026-05-05 13:19 51.51894 10.24305 28427 ft 402 kts 187°
2026-05-05 13:19 51.49112 10.23956 27753 ft 400 kts 187°
2026-05-05 13:19 51.46351 10.23585 27094 ft 397 kts 190°
2026-05-05 13:19 51.43711 10.22482 26450 ft 390 kts 204°
2026-05-05 13:20 51.41260 10.20791 25813 ft 377 kts 205°
2026-05-05 13:20 51.38902 10.19140 25196 ft 364 kts 205°
2026-05-05 13:20 51.36616 10.17531 24579 ft 354 kts 205°
2026-05-05 13:20 51.34398 10.15960 23990 ft 344 kts 205°
2026-05-05 13:21 51.32264 10.14448 23423 ft 336 kts 204°
2026-05-05 13:21 51.30153 10.12954 22744 ft 328 kts 204°
2026-05-05 13:21 51.28086 10.11494 22080 ft 322 kts 204°
2026-05-05 13:21 51.26052 10.10065 21414 ft 317 kts 204°
2026-05-05 13:22 51.24054 10.08665 20775 ft 311 kts 204°
2026-05-05 13:22 51.22082 10.07287 20148 ft 307 kts 204°
2026-05-05 13:22 51.20140 10.05928 19534 ft 303 kts 204°
2026-05-05 13:22 51.18223 10.04585 18929 ft 299 kts 205°
2026-05-05 13:23 51.16329 10.03258 18337 ft 296 kts 205°
2026-05-05 13:23 51.14456 10.01947 17698 ft 293 kts 205°
2026-05-05 13:23 51.12598 10.00647 17029 ft 291 kts 204°
2026-05-05 13:23 51.10753 9.99358 16391 ft 289 kts 203°
2026-05-05 13:24 51.08918 9.98080 15754 ft 287 kts 204°
2026-05-05 13:24 51.07091 9.96812 15131 ft 286 kts 204°
2026-05-05 13:24 51.05273 9.95550 14520 ft 285 kts 204°
2026-05-05 13:24 51.03477 9.94301 14121 ft 281 kts 204°
2026-05-05 13:25 51.01644 9.93028 13768 ft 291 kts 204°
2026-05-05 13:25 50.99779 9.91734 13379 ft 293 kts 204°
2026-05-05 13:25 50.97914 9.90441 12981 ft 292 kts 204°
2026-05-05 13:25 50.96048 9.89147 12596 ft 293 kts 204°
2026-05-05 13:26 50.94183 9.87856 12206 ft 292 kts 203°
2026-05-05 13:26 50.92324 9.86572 11817 ft 291 kts 204°
2026-05-05 13:26 50.90476 9.85294 11442 ft 290 kts 203°
2026-05-05 13:26 50.88630 9.84020 11064 ft 289 kts 203°
2026-05-05 13:27 50.86793 9.82755 10686 ft 287 kts 203°
2026-05-05 13:27 50.84964 9.81495 10325 ft 286 kts 203°
2026-05-05 13:27 50.83145 9.80244 9963 ft 285 kts 203°
2026-05-05 13:27 50.81332 9.78998 9598 ft 283 kts 203°
2026-05-05 13:28 50.79528 9.77759 9202 ft 283 kts 203°
2026-05-05 13:28 50.77738 9.76530 9057 ft 279 kts 203°
2026-05-05 13:28 50.75962 9.75312 8919 ft 278 kts 203°
2026-05-05 13:28 50.74186 9.74096 8794 ft 278 kts 203°
2026-05-05 13:29 50.72414 9.72883 8658 ft 277 kts 203°
2026-05-05 13:29 50.70644 9.71671 8528 ft 277 kts 203°
2026-05-05 13:29 50.68879 9.70463 8401 ft 276 kts 203°
2026-05-05 13:29 50.67116 9.69255 8272 ft 276 kts 203°
2026-05-05 13:30 50.65352 9.68051 8145 ft 276 kts 203°
2026-05-05 13:30 50.63595 9.66856 8017 ft 275 kts 203°
2026-05-05 13:30 50.61836 9.65662 7890 ft 275 kts 203°
2026-05-05 13:30 50.60083 9.64468 7759 ft 275 kts 203°
2026-05-05 13:31 50.58330 9.63274 7646 ft 274 kts 203°
2026-05-05 13:31 50.56604 9.62101 7512 ft 274 kts 203°
2026-05-05 13:31 50.54835 9.60899 7389 ft 273 kts 203°
2026-05-05 13:31 50.53090 9.59717 7261 ft 273 kts 203°
2026-05-05 13:32 50.51371 9.58555 7134 ft 272 kts 203°
2026-05-05 13:32 50.49633 9.57383 7018 ft 272 kts 203°
2026-05-05 13:32 50.47897 9.56208 6891 ft 271 kts 203°
2026-05-05 13:32 50.46167 9.55033 6766 ft 271 kts 203°
2026-05-05 13:33 50.44436 9.53860 6647 ft 271 kts 203°
2026-05-05 13:33 50.42706 9.52691 6527 ft 270 kts 203°
2026-05-05 13:33 50.40983 9.51526 6405 ft 270 kts 203°
2026-05-05 13:33 50.39261 9.50362 6288 ft 269 kts 203°
2026-05-05 13:34 50.37545 9.49204 6156 ft 267 kts 203°
2026-05-05 13:34 50.35875 9.48078 6016 ft 256 kts 203°
2026-05-05 13:34 50.34807 9.47359 5929 ft 248 kts 203°
2026-05-05 13:34 50.33263 9.46321 5800 ft 236 kts 203°
2026-05-05 13:35 50.31791 9.45333 5672 ft 225 kts 203°
2026-05-05 13:35 50.30382 9.44388 5550 ft 216 kts 203°
2026-05-05 13:35 50.29013 9.43470 5409 ft 213 kts 203°
2026-05-05 13:35 50.27690 9.42420 5293 ft 214 kts 211°
2026-05-05 13:36 50.26491 9.41062 5171 ft 212 kts 220°
2026-05-05 13:36 50.25445 9.39445 5052 ft 211 kts 229°
2026-05-05 13:36 50.24577 9.37604 4984 ft 211 kts 237°
2026-05-05 13:36 50.23894 9.35566 4992 ft 212 kts 245°
2026-05-05 13:37 50.23379 9.33402 4988 ft 213 kts 249°
2026-05-05 13:37 50.22878 9.31223 4989 ft 214 kts 249°
2026-05-05 13:37 50.22373 9.29041 4988 ft 214 kts 248°
2026-05-05 13:37 50.21869 9.26864 4989 ft 213 kts 249°
2026-05-05 13:38 50.21367 9.24690 4992 ft 213 kts 249°
2026-05-05 13:38 50.20864 9.22521 4986 ft 212 kts 248°
2026-05-05 13:38 50.20361 9.20361 4990 ft 212 kts 248°
2026-05-05 13:38 50.19858 9.18197 4988 ft 213 kts 249°
2026-05-05 13:39 50.19357 9.16038 4980 ft 206 kts 249°
2026-05-05 13:39 50.18888 9.14012 4978 ft 191 kts 248°
2026-05-05 13:39 50.18453 9.12136 4976 ft 177 kts 249°
2026-05-05 13:39 50.18042 9.10370 5015 ft 170 kts 248°
2026-05-05 13:40 50.17635 9.08628 5003 ft 170 kts 248°
2026-05-05 13:40 50.17231 9.06906 4997 ft 169 kts 249°
2026-05-05 13:40 50.16827 9.05183 4985 ft 169 kts 248°
2026-05-05 13:40 50.16424 9.03467 4985 ft 168 kts 248°
2026-05-05 13:41 50.16022 9.01749 4990 ft 169 kts 249°
2026-05-05 13:41 50.15619 9.00030 4992 ft 169 kts 248°
2026-05-05 13:41 50.15216 8.98311 4993 ft 169 kts 248°
2026-05-05 13:41 50.14806 8.96564 4997 ft 179 kts 248°
2026-05-05 13:42 50.14366 8.94691 4996 ft 186 kts 248°
2026-05-05 13:42 50.13917 8.92784 4996 ft 188 kts 248°
2026-05-05 13:42 50.13473 8.90893 4996 ft 183 kts 248°
2026-05-05 13:42 50.13040 8.89046 5004 ft 181 kts 248°
2026-05-05 13:43 50.12606 8.87208 4992 ft 180 kts 249°
2026-05-05 13:43 50.12175 8.85374 4993 ft 181 kts 249°
2026-05-05 13:43 50.11747 8.83557 4994 ft 174 kts 249°
2026-05-05 13:43 50.11336 8.81807 4995 ft 171 kts 248°
2026-05-05 13:44 50.10926 8.80069 4997 ft 171 kts 248°
2026-05-05 13:44 50.10516 8.78333 4861 ft 172 kts 248°
2026-05-05 13:44 50.10089 8.76531 4207 ft 182 kts 249°
2026-05-05 13:44 50.09644 8.74655 3597 ft 186 kts 248°
2026-05-05 13:45 50.09202 8.72788 3117 ft 182 kts 249°
2026-05-05 13:45 50.08782 8.71018 2905 ft 169 kts 248°
2026-05-05 13:45 50.08392 8.69384 2681 ft 158 kts 249°
2026-05-05 13:45 50.08023 8.67830 2460 ft 148 kts 248°
2026-05-05 13:46 50.07675 8.66364 2248 ft 142 kts 249°
2026-05-05 13:46 50.07338 8.64950 2054 ft 138 kts 249°
2026-05-05 13:46 50.07007 8.63557 1870 ft 136 kts 248°
2026-05-05 13:46 50.06705 8.62177 1699 ft 135 kts 251°
2026-05-05 13:47 50.06472 8.60770 1522 ft 134 kts 251°
2026-05-05 13:47 50.06132 8.59432 1299 ft 134 kts 244°
2026-05-05 13:47 50.05726 8.58128 1079 ft 134 kts 248°
2026-05-05 13:47 50.05408 8.56774 862 ft 134 kts 249°
2026-05-05 13:48 50.05100 8.55411 722 ft 133 kts 249°
2026-05-05 13:48 50.04760 8.54078 531 ft 132 kts 246°
2026-05-05 13:48 50.04439 8.52763 374 ft 130 kts 248°
2026-05-05 13:48 50.04156 8.51598 333 ft 94 kts 250°
2026-05-05 13:49 50.03988 8.50895 325 ft 45 kts 249°
2026-05-05 13:49 50.03913 8.50579 323 ft 29 kts 248°
2026-05-05 13:49 50.03800 8.50330 320 ft 28 kts 224°
2026-05-05 13:49 50.03699 8.50198 319 ft 16 kts 214°
2026-05-05 13:50 50.03626 8.50244 324 ft 13 kts 98°
2026-05-05 13:50 50.03646 8.50358 325 ft 10 kts 66°
2026-05-05 13:50 50.03666 8.50440 324 ft 7 kts 71°
2026-05-05 13:50 50.03692 8.50554 329 ft 16 kts 69°
2026-05-05 13:51 50.03741 8.50756 329 ft 22 kts 70°
2026-05-05 13:51 50.03734 8.51019 334 ft 28 kts 114°
2026-05-05 13:51 50.03650 8.51291 353 ft 27 kts 116°
2026-05-05 13:51 50.03569 8.51547 357 ft 26 kts 116°
2026-05-05 13:52 50.03490 8.51816 357 ft 28 kts 99°
2026-05-05 13:52 50.03528 8.52013 351 ft 14 kts 92°
2026-05-05 13:52 50.03539 8.52164 345 ft 15 kts 82°
2026-05-05 13:52 50.03556 8.52332 340 ft 16 kts 74°
2026-05-05 13:53 50.03591 8.52486 341 ft 14 kts 76°
2026-05-05 13:53 50.03597 8.52630 341 ft 13 kts 79°
2026-05-05 13:53 50.03624 8.52751 348 ft 11 kts 70°
2026-05-05 13:53 50.03616 8.52858 335 ft 10 kts 134°
2026-05-05 13:54 50.03581 8.52941 340 ft 10 kts 90°
2026-05-05 13:54 50.03574 8.53035 336 ft 9 kts 124°
2026-05-05 13:54 50.03536 8.53101 338 ft 8 kts 106°
2026-05-05 13:54 50.03557 8.53223 338 ft 17 kts 69°
2026-05-05 13:55 50.03609 8.53441 337 ft 24 kts 69°
2026-05-05 13:55 50.03671 8.53685 347 ft 16 kts 69°
2026-05-05 13:55 50.03631 8.53785 348 ft 12 kts 158°
2026-05-05 13:55 50.03618 8.53792 336 ft 0 kts 161°